BOV558 SAEZ-SLUY

Flight info

Callsign BOV558
Flight time 2h 18m
Altitude 33998
Route BIVA2A BIVAM UW8 ERE UT672 JUJ UM776 AKVAG
Aircraft B737/M-V/N

Departure

Time 2026-05-03 21:49
Airport Ezeiza International Airport - Ministro Pistarini (SAEZ)

Arrival

Time 2026-05-04 00:07
Airport Joya Andina International Airport (SLUY)
Time Latitude Longitude Altitude Speed Heading
2026-05-03 21:10 -34.81690 -58.54106 75 ft 0 kts 351°
2026-05-03 21:30 -34.81692 -58.54106 75 ft 1 kts 351°
2026-05-03 21:30 -34.81700 -58.54104 75 ft 2 kts 351°
2026-05-03 21:30 -34.81723 -58.54100 75 ft 3 kts 356°
2026-05-03 21:30 -34.81736 -58.54101 75 ft 3 kts 16°
2026-05-03 21:31 -34.81753 -58.54114 75 ft 3 kts 49°
2026-05-03 21:31 -34.81762 -58.54136 75 ft 3 kts 81°
2026-05-03 21:31 -34.81763 -58.54144 75 ft 0 kts 81°
2026-05-03 21:33 -34.81763 -58.54143 75 ft 0 kts 81°
2026-05-03 21:33 -34.81760 -58.54125 75 ft 6 kts 81°
2026-05-03 21:34 -34.81751 -58.54058 75 ft 10 kts 81°
2026-05-03 21:34 -34.81738 -58.53960 75 ft 13 kts 79°
2026-05-03 21:34 -34.81706 -58.53869 75 ft 12 kts 52°
2026-05-03 21:34 -34.81666 -58.53796 75 ft 7 kts 78°
2026-05-03 21:35 -34.81691 -58.53760 75 ft 7 kts 146°
2026-05-03 21:35 -34.81741 -58.53726 75 ft 9 kts 155°
2026-05-03 21:35 -34.81807 -58.53688 75 ft 11 kts 153°
2026-05-03 21:35 -34.81879 -58.53640 75 ft 8 kts 149°
2026-05-03 21:36 -34.81909 -58.53584 75 ft 9 kts 113°
2026-05-03 21:36 -34.81925 -58.53504 75 ft 11 kts 102°
2026-05-03 21:36 -34.81942 -58.53409 75 ft 13 kts 103°
2026-05-03 21:36 -34.81964 -58.53297 75 ft 14 kts 106°
2026-05-03 21:37 -34.81982 -58.53205 75 ft 9 kts 104°
2026-05-03 21:37 -34.82000 -58.53120 75 ft 11 kts 104°
2026-05-03 21:37 -34.82020 -58.53023 75 ft 9 kts 104°
2026-05-03 21:37 -34.82063 -58.52967 75 ft 10 kts 157°
2026-05-03 21:38 -34.82138 -58.52940 75 ft 12 kts 163°
2026-05-03 21:38 -34.82225 -58.52910 75 ft 14 kts 164°
2026-05-03 21:38 -34.82325 -58.52876 75 ft 16 kts 164°
2026-05-03 21:38 -34.82438 -58.52838 75 ft 18 kts 164°
2026-05-03 21:39 -34.82561 -58.52796 75 ft 19 kts 164°
2026-05-03 21:39 -34.82693 -58.52749 75 ft 21 kts 163°
2026-05-03 21:39 -34.82834 -58.52698 75 ft 22 kts 163°
2026-05-03 21:39 -34.82986 -58.52645 75 ft 23 kts 164°
2026-05-03 21:40 -34.83141 -58.52591 75 ft 21 kts 164°
2026-05-03 21:40 -34.83283 -58.52542 75 ft 22 kts 164°
2026-05-03 21:40 -34.83398 -58.52522 75 ft 15 kts 190°
2026-05-03 21:40 -34.83490 -58.52518 75 ft 9 kts 139°
2026-05-03 21:41 -34.83476 -58.52480 75 ft 6 kts 15°
2026-05-03 21:41 -34.83464 -58.52481 75 ft 0 kts 349°
2026-05-03 21:44 -34.83463 -58.52481 75 ft 0 kts 349°
2026-05-03 21:47 -34.83461 -58.52481 75 ft 0 kts 349°
2026-05-03 21:47 -34.83457 -58.52482 75 ft 2 kts 348°
2026-05-03 21:48 -34.83422 -58.52494 75 ft 27 kts 343°
2026-05-03 21:48 -34.82740 -58.52732 75 ft 175 kts 344°
2026-05-03 21:48 -34.81191 -58.53267 111 ft 287 kts 344°
2026-05-03 21:48 -34.79022 -58.53977 469 ft 344 kts 347°
2026-05-03 21:49 -34.76674 -58.54437 896 ft 339 kts 354°
2026-05-03 21:49 -34.74275 -58.54502 1454 ft 347 kts
2026-05-03 21:49 -34.71864 -58.54185 2199 ft 349 kts
2026-05-03 21:49 -34.69585 -58.53616 2828 ft 313 kts 14°
2026-05-03 21:50 -34.67584 -58.53149 3534 ft 276 kts
2026-05-03 21:50 -34.65747 -58.53252 4273 ft 256 kts 353°
2026-05-03 21:50 -34.63922 -58.53564 4134 ft 277 kts 351°
2026-05-03 21:50 -34.62045 -58.53903 3968 ft 267 kts 352°
2026-05-03 21:51 -34.60254 -58.54195 3983 ft 255 kts 353°
2026-05-03 21:51 -34.58491 -58.54443 4032 ft 248 kts 354°
2026-05-03 21:51 -34.56814 -58.54638 4241 ft 242 kts 354°
2026-05-03 21:51 -34.55159 -58.54794 4745 ft 230 kts 355°
2026-05-03 21:52 -34.53570 -58.54917 5495 ft 235 kts 354°
2026-05-03 21:52 -34.51898 -58.55025 6256 ft 241 kts 353°
2026-05-03 21:52 -34.50211 -58.55117 7005 ft 245 kts 353°
2026-05-03 21:52 -34.48476 -58.55202 7764 ft 251 kts 353°
2026-05-03 21:53 -34.46719 -58.55280 8517 ft 255 kts 353°
2026-05-03 21:53 -34.44917 -58.55354 9277 ft 259 kts 353°
2026-05-03 21:53 -34.43121 -58.55423 10024 ft 262 kts 353°
2026-05-03 21:53 -34.41271 -58.55491 10783 ft 265 kts 353°
2026-05-03 21:54 -34.39428 -58.55699 11532 ft 264 kts 342°
2026-05-03 21:54 -34.37866 -58.56705 12265 ft 256 kts 311°
2026-05-03 21:54 -34.36835 -58.58468 13047 ft 256 kts 297°
2026-05-03 21:54 -34.35891 -58.60320 13802 ft 262 kts 305°
2026-05-03 21:55 -34.34480 -58.61709 14540 ft 271 kts 330°
2026-05-03 21:55 -34.32670 -58.62480 15312 ft 278 kts 339°
2026-05-03 21:55 -34.30776 -58.63105 16073 ft 283 kts 341°
2026-05-03 21:55 -34.28855 -58.63696 16827 ft 285 kts 340°
2026-05-03 21:56 -34.27015 -58.64554 17576 ft 283 kts 327°
2026-05-03 21:56 -34.25361 -58.65856 18339 ft 284 kts 320°
2026-05-03 21:56 -34.23781 -58.67296 19093 ft 287 kts 318°
2026-05-03 21:56 -34.22197 -58.68819 19853 ft 290 kts 317°
2026-05-03 21:57 -34.20632 -58.70354 20601 ft 293 kts 317°
2026-05-03 21:57 -34.19028 -58.71941 21362 ft 296 kts 317°
2026-05-03 21:57 -34.17447 -58.73511 22092 ft 300 kts 317°
2026-05-03 21:57 -34.15804 -58.75147 22750 ft 307 kts 317°
2026-05-03 21:58 -34.14144 -58.76807 23128 ft 317 kts 317°
2026-05-03 21:58 -34.12436 -58.78518 23402 ft 318 kts 317°
2026-05-03 21:58 -34.10729 -58.80226 23713 ft 316 kts 317°
2026-05-03 21:58 -34.09026 -58.81918 24076 ft 317 kts 318°
2026-05-03 21:59 -34.07266 -58.83525 24451 ft 320 kts 320°
2026-05-03 21:59 -34.05461 -58.85084 24826 ft 322 kts 321°
2026-05-03 21:59 -34.03617 -58.86637 25202 ft 324 kts 322°
2026-05-03 21:59 -34.01754 -58.88192 25578 ft 326 kts 322°
2026-05-03 22:00 -33.99884 -58.89747 25954 ft 328 kts 322°
2026-05-03 22:00 -33.98619 -58.90797 26206 ft 330 kts 322°
2026-05-03 22:00 -33.96082 -58.92902 26709 ft 332 kts 322°
2026-05-03 22:00 -33.94824 -58.93946 26957 ft 334 kts 322°
2026-05-03 22:01 -33.92909 -58.95535 27332 ft 336 kts 322°
2026-05-03 22:01 -33.90324 -58.97680 27835 ft 339 kts 322°
2026-05-03 22:01 -33.89019 -58.98764 28088 ft 340 kts 322°
2026-05-03 22:01 -33.87077 -59.00377 28462 ft 342 kts 322°
2026-05-03 22:02 -33.85093 -59.02026 28842 ft 344 kts 322°
2026-05-03 22:02 -33.83127 -59.03660 29216 ft 346 kts 322°
2026-05-03 22:02 -33.81130 -59.05321 29594 ft 348 kts 322°
2026-05-03 22:02 -33.79140 -59.06976 29969 ft 350 kts 322°
2026-05-03 22:03 -33.77106 -59.08669 30349 ft 352 kts 322°
2026-05-03 22:03 -33.75096 -59.10342 30723 ft 354 kts 322°
2026-05-03 22:03 -33.73055 -59.12041 31101 ft 356 kts 322°
2026-05-03 22:03 -33.71025 -59.13729 31475 ft 359 kts 322°
2026-05-03 22:04 -33.68932 -59.15419 31853 ft 362 kts 323°
2026-05-03 22:04 -33.66816 -59.17083 32230 ft 364 kts 323°
2026-05-03 22:04 -33.64696 -59.18733 32604 ft 367 kts 324°
2026-05-03 22:04 -33.62531 -59.20410 32983 ft 369 kts 324°
2026-05-03 22:05 -33.60360 -59.22087 33361 ft 371 kts 324°
2026-05-03 22:05 -33.58191 -59.23763 33735 ft 373 kts 324°
2026-05-03 22:05 -33.55973 -59.25477 33948 ft 381 kts 324°
2026-05-03 22:05 -33.53745 -59.27201 34002 ft 388 kts 324°
2026-05-03 22:06 -33.49171 -59.30745 33998 ft 388 kts 324°
2026-05-03 22:06 -33.44643 -59.34248 33995 ft 386 kts 324°
2026-05-03 22:07 -33.40118 -59.37744 33996 ft 386 kts 324°
2026-05-03 22:07 -33.35643 -59.41198 33996 ft 385 kts 324°
2026-05-03 22:08 -33.31113 -59.44692 33996 ft 385 kts 324°
2026-05-03 22:08 -33.26624 -59.48151 33996 ft 385 kts 324°
2026-05-03 22:09 -33.22114 -59.51624 33996 ft 385 kts 324°
2026-05-03 22:10 -33.15357 -59.56823 33996 ft 385 kts 324°
2026-05-03 22:10 -33.10816 -59.60312 33996 ft 385 kts 324°
2026-05-03 22:11 -33.06313 -59.63770 33996 ft 385 kts 324°
2026-05-03 22:11 -33.01797 -59.67235 33996 ft 385 kts 324°
2026-05-03 22:12 -32.97294 -59.70689 33996 ft 385 kts 324°
2026-05-03 22:12 -32.92801 -59.74131 33996 ft 386 kts 324°
2026-05-03 22:13 -32.88262 -59.77607 33996 ft 386 kts 324°
2026-05-03 22:13 -32.83733 -59.81072 33996 ft 386 kts 324°
2026-05-03 22:14 -32.79228 -59.84516 33996 ft 386 kts 324°
2026-05-03 22:14 -32.74701 -59.87974 33996 ft 386 kts 324°
2026-05-03 22:15 -32.70170 -59.91433 33996 ft 386 kts 324°
2026-05-03 22:15 -32.65628 -59.94897 33996 ft 387 kts 324°
2026-05-03 22:16 -32.61009 -59.98428 34000 ft 410 kts 324°
2026-05-03 22:16 -32.58553 -60.00314 34001 ft 426 kts 324°
2026-05-03 22:16 -32.56045 -60.02247 34000 ft 436 kts 324°
2026-05-03 22:17 -32.50906 -60.06212 33997 ft 443 kts 324°
2026-05-03 22:17 -32.45722 -60.10212 33996 ft 445 kts 324°
2026-05-03 22:18 -32.40514 -60.14229 33997 ft 451 kts 324°
2026-05-03 22:18 -32.35194 -60.18335 33997 ft 456 kts 324°
2026-05-03 22:19 -32.29875 -60.22439 33996 ft 458 kts 324°
2026-05-03 22:19 -32.24516 -60.26571 33996 ft 459 kts 324°
2026-05-03 22:20 -32.19159 -60.30699 33996 ft 460 kts 324°
2026-05-03 22:20 -32.13793 -60.34830 33996 ft 461 kts 324°
2026-05-03 22:21 -32.08412 -60.38969 33996 ft 461 kts 324°
2026-05-03 22:21 -32.03038 -60.43098 33996 ft 461 kts 324°
2026-05-03 22:22 -31.97627 -60.47166 33996 ft 462 kts 326°
2026-05-03 22:22 -31.92156 -60.51113 33996 ft 464 kts 326°
2026-05-03 22:23 -31.86619 -60.55054 33996 ft 466 kts 326°
2026-05-03 22:23 -31.81061 -60.58993 33996 ft 468 kts 326°
2026-05-03 22:24 -31.75436 -60.62975 33997 ft 474 kts 326°
2026-05-03 22:24 -31.69740 -60.67006 33996 ft 476 kts 326°
2026-05-03 22:25 -31.64058 -60.71024 33996 ft 477 kts 326°
2026-05-03 22:25 -31.58361 -60.75049 33996 ft 478 kts 326°
2026-05-03 22:26 -31.52651 -60.79080 33996 ft 478 kts 326°
2026-05-03 22:26 -31.46965 -60.83091 33996 ft 479 kts 326°
2026-05-03 22:27 -31.41271 -60.87104 33996 ft 479 kts 326°
2026-05-03 22:27 -31.35549 -60.91133 33996 ft 479 kts 326°
2026-05-03 22:28 -31.29826 -60.95159 33996 ft 479 kts 326°
2026-05-03 22:28 -31.24131 -60.99162 33996 ft 479 kts 326°
2026-05-03 22:29 -31.18392 -61.03192 33996 ft 479 kts 326°
2026-05-03 22:29 -31.12601 -61.07054 33998 ft 481 kts 331°
2026-05-03 22:30 -31.06481 -61.10239 34002 ft 482 kts 334°
2026-05-03 22:30 -31.01350 -61.12802 33997 ft 484 kts 334°
2026-05-03 22:31 -30.95129 -61.16124 33997 ft 494 kts 332°
2026-05-03 22:31 -30.88959 -61.19738 33997 ft 502 kts 330°
2026-05-03 22:32 -30.82808 -61.23622 33996 ft 503 kts 328°
2026-05-03 22:32 -30.76787 -61.27630 33995 ft 492 kts 327°
2026-05-03 22:33 -30.70952 -61.31655 33995 ft 485 kts 326°
2026-05-03 22:33 -30.65188 -61.35730 33995 ft 481 kts 326°
2026-05-03 22:34 -30.59501 -61.39814 33995 ft 476 kts 326°
2026-05-03 22:34 -30.53928 -61.43856 33995 ft 471 kts 325°
2026-05-03 22:35 -30.48389 -61.47898 33996 ft 469 kts 325°
2026-05-03 22:35 -30.42879 -61.51932 33996 ft 468 kts 325°
2026-05-03 22:36 -30.37362 -61.55977 33996 ft 468 kts 325°
2026-05-03 22:36 -30.31849 -61.60020 33996 ft 467 kts 325°
2026-05-03 22:37 -30.26335 -61.64062 33996 ft 467 kts 325°
2026-05-03 22:37 -30.20875 -61.68061 33996 ft 467 kts 325°
2026-05-03 22:38 -30.15374 -61.72086 33996 ft 467 kts 325°
2026-05-03 22:38 -30.09874 -61.76104 33996 ft 467 kts 325°
2026-05-03 22:39 -30.04346 -61.80139 33996 ft 467 kts 325°
2026-05-03 22:39 -29.98876 -61.84126 33996 ft 467 kts 325°
2026-05-03 22:40 -29.93360 -61.88142 33996 ft 467 kts 325°
2026-05-03 22:40 -29.87821 -61.92081 33998 ft 468 kts 327°
2026-05-03 22:41 -29.82154 -61.95775 33997 ft 468 kts 328°
2026-05-03 22:41 -29.76434 -61.99346 33996 ft 469 kts 329°
2026-05-03 22:42 -29.70656 -62.02896 33996 ft 469 kts 329°
2026-05-03 22:42 -29.64906 -62.06411 33996 ft 469 kts 329°
2026-05-03 22:43 -29.59147 -62.09928 33996 ft 469 kts 329°
2026-05-03 22:43 -29.53372 -62.13454 33996 ft 469 kts 329°
2026-05-03 22:44 -29.47626 -62.16964 33996 ft 469 kts 329°
2026-05-03 22:44 -29.41851 -62.20492 33996 ft 469 kts 329°
2026-05-03 22:45 -29.36073 -62.24019 33996 ft 469 kts 329°
2026-05-03 22:45 -29.30341 -62.27516 33996 ft 469 kts 329°
2026-05-03 22:46 -29.24574 -62.31031 33996 ft 469 kts 329°
2026-05-03 22:46 -29.18792 -62.34551 33996 ft 469 kts 329°
2026-05-03 22:47 -29.13064 -62.38035 33996 ft 469 kts 329°
2026-05-03 22:47 -29.07305 -62.41533 33996 ft 469 kts 329°
2026-05-03 22:48 -29.01530 -62.45037 33996 ft 469 kts 329°
2026-05-03 22:48 -28.95748 -62.48541 33996 ft 469 kts 329°
2026-05-03 22:49 -28.89972 -62.52037 33996 ft 469 kts 329°
2026-05-03 22:49 -28.84203 -62.55523 33996 ft 469 kts 329°
2026-05-03 22:50 -28.78431 -62.58990 33996 ft 469 kts 329°
2026-05-03 22:50 -28.72668 -62.62440 33996 ft 469 kts 329°
2026-05-03 22:51 -28.66871 -62.65904 33996 ft 469 kts 329°
2026-05-03 22:51 -28.61120 -62.69337 33996 ft 469 kts 329°
2026-05-03 22:52 -28.55324 -62.72792 33996 ft 469 kts 329°
2026-05-03 22:52 -28.49530 -62.76242 33996 ft 469 kts 329°
2026-05-03 22:53 -28.43769 -62.79668 33996 ft 469 kts 329°
2026-05-03 22:53 -28.37972 -62.83112 33996 ft 469 kts 329°
2026-05-03 22:54 -28.32172 -62.86554 33996 ft 469 kts 329°
2026-05-03 22:54 -28.26410 -62.89969 33996 ft 469 kts 330°
2026-05-03 22:55 -28.20599 -62.93409 33996 ft 469 kts 330°
2026-05-03 22:55 -28.14801 -62.96837 33996 ft 469 kts 330°
2026-05-03 22:56 -28.09032 -63.00244 33996 ft 469 kts 330°
2026-05-03 22:56 -28.03250 -63.03654 33996 ft 469 kts 330°
2026-05-03 22:57 -27.97461 -63.07064 33996 ft 469 kts 330°
2026-05-03 22:57 -27.92608 -63.09920 33996 ft 469 kts 330°
2026-05-03 22:58 -27.86826 -63.13319 33996 ft 469 kts 330°
2026-05-03 22:58 -27.81021 -63.16727 33996 ft 469 kts 330°
2026-05-03 22:59 -27.75221 -63.20128 33996 ft 469 kts 330°
2026-05-03 22:59 -27.69439 -63.23514 33996 ft 469 kts 330°
2026-05-03 23:00 -27.63636 -63.26909 33996 ft 469 kts 330°
2026-05-03 23:00 -27.57872 -63.30277 33996 ft 469 kts 330°
2026-05-03 23:01 -27.52043 -63.33678 33996 ft 469 kts 330°
2026-05-03 23:01 -27.46270 -63.37043 33996 ft 469 kts 330°
2026-05-03 23:02 -27.40468 -63.40421 33996 ft 469 kts 330°
2026-05-03 23:02 -27.34664 -63.43796 33996 ft 469 kts 330°
2026-05-03 23:03 -27.28849 -63.47174 33996 ft 469 kts 330°
2026-05-03 23:03 -27.23037 -63.50546 33996 ft 469 kts 330°
2026-05-03 23:04 -27.17261 -63.53894 33996 ft 469 kts 330°
2026-05-03 23:04 -27.11425 -63.57272 33996 ft 469 kts 330°
2026-05-03 23:05 -27.05629 -63.60624 33996 ft 469 kts 330°
2026-05-03 23:05 -26.99808 -63.63981 33996 ft 469 kts 330°
2026-05-03 23:06 -26.93989 -63.67321 33996 ft 469 kts 330°
2026-05-03 23:06 -26.88205 -63.70633 33996 ft 469 kts 330°
2026-05-03 23:07 -26.82353 -63.73980 33996 ft 469 kts 330°
2026-05-03 23:07 -26.76572 -63.77283 33996 ft 469 kts 330°
2026-05-03 23:08 -26.70731 -63.80616 33996 ft 469 kts 330°
2026-05-03 23:08 -26.64927 -63.83917 33996 ft 469 kts 330°
2026-05-03 23:09 -26.59120 -63.87211 33996 ft 469 kts 330°
2026-05-03 23:09 -26.53262 -63.90530 33996 ft 469 kts 330°
2026-05-03 23:10 -26.47429 -63.93831 33996 ft 469 kts 330°
2026-05-03 23:10 -26.41604 -63.97124 33996 ft 469 kts 330°
2026-05-03 23:11 -26.35775 -64.00417 33996 ft 469 kts 330°
2026-05-03 23:11 -26.29989 -64.03682 33996 ft 469 kts 330°
2026-05-03 23:12 -26.24154 -64.06973 33996 ft 469 kts 330°
2026-05-03 23:12 -26.18320 -64.10258 33996 ft 469 kts 330°
2026-05-03 23:13 -26.12502 -64.13532 33996 ft 469 kts 330°
2026-05-03 23:13 -26.06654 -64.16816 33996 ft 469 kts 330°
2026-05-03 23:14 -26.00810 -64.20093 33996 ft 469 kts 330°
2026-05-03 23:14 -25.94980 -64.23359 33996 ft 469 kts 330°
2026-05-03 23:15 -25.89144 -64.26624 33996 ft 469 kts 330°
2026-05-03 23:15 -25.83329 -64.29874 33996 ft 469 kts 330°
2026-05-03 23:16 -25.77470 -64.33146 33996 ft 469 kts 330°
2026-05-03 23:16 -25.71630 -64.36404 33996 ft 469 kts 330°
2026-05-03 23:17 -25.65795 -64.39656 33996 ft 469 kts 330°
2026-05-03 23:17 -25.59980 -64.42892 33996 ft 469 kts 330°
2026-05-03 23:18 -25.54146 -64.46137 33996 ft 469 kts 330°
2026-05-03 23:18 -25.48278 -64.49396 33996 ft 469 kts 330°
2026-05-03 23:19 -25.42435 -64.52638 33996 ft 469 kts 330°
2026-05-03 23:19 -25.36590 -64.55878 33996 ft 469 kts 330°
2026-05-03 23:20 -25.30778 -64.59095 33996 ft 469 kts 330°
2026-05-03 23:20 -25.24915 -64.62338 33996 ft 469 kts 330°
2026-05-03 23:21 -25.19066 -64.65569 33996 ft 469 kts 330°
2026-05-03 23:21 -25.13239 -64.68785 33996 ft 469 kts 330°
2026-05-03 23:22 -25.04464 -64.73621 33996 ft 469 kts 330°
2026-05-03 23:22 -24.98621 -64.76837 33996 ft 469 kts 330°
2026-05-03 23:23 -24.92778 -64.80050 33996 ft 469 kts 330°
2026-05-03 23:23 -24.86923 -64.83266 33996 ft 469 kts 331°
2026-05-03 23:24 -24.82055 -64.85937 33996 ft 469 kts 331°
2026-05-03 23:24 -24.76184 -64.89156 33996 ft 469 kts 331°
2026-05-03 23:25 -24.70332 -64.92360 33996 ft 469 kts 331°
2026-05-03 23:25 -24.64496 -64.95553 33996 ft 469 kts 331°
2026-05-03 23:26 -24.58647 -64.98749 33996 ft 469 kts 331°
2026-05-03 23:26 -24.52815 -65.01934 33996 ft 469 kts 331°
2026-05-03 23:27 -24.46937 -65.05140 33996 ft 469 kts 331°
2026-05-03 23:27 -24.41065 -65.08305 33997 ft 470 kts 332°
2026-05-03 23:28 -24.35090 -65.11228 33998 ft 470 kts 334°
2026-05-03 23:28 -24.29042 -65.14015 33996 ft 471 kts 335°
2026-05-03 23:29 -24.23006 -65.16732 33996 ft 471 kts 335°
2026-05-03 23:29 -24.16912 -65.19454 33996 ft 471 kts 335°
2026-05-03 23:30 -24.10826 -65.22171 33996 ft 471 kts 335°
2026-05-03 23:30 -24.04760 -65.24880 33996 ft 471 kts 335°
2026-05-03 23:31 -23.98722 -65.27579 33996 ft 471 kts 335°
2026-05-03 23:31 -23.92652 -65.30295 33996 ft 471 kts 335°
2026-05-03 23:32 -23.86576 -65.33014 33996 ft 471 kts 335°
2026-05-03 23:32 -23.80487 -65.35738 33996 ft 471 kts 335°
2026-05-03 23:33 -23.74418 -65.38451 33996 ft 471 kts 335°
2026-05-03 23:33 -23.68352 -65.41162 33996 ft 471 kts 335°
2026-05-03 23:34 -23.62300 -65.43865 33996 ft 471 kts 335°
2026-05-03 23:34 -23.56240 -65.46568 33996 ft 471 kts 335°
2026-05-03 23:35 -23.50147 -65.49281 33996 ft 471 kts 335°
2026-05-03 23:35 -23.44098 -65.51971 33996 ft 471 kts 335°
2026-05-03 23:36 -23.38037 -65.54664 33996 ft 471 kts 335°
2026-05-03 23:36 -23.31935 -65.57373 33996 ft 471 kts 335°
2026-05-03 23:37 -23.25883 -65.60058 33996 ft 471 kts 335°
2026-05-03 23:37 -23.19812 -65.62748 33996 ft 471 kts 335°
2026-05-03 23:38 -23.13734 -65.65439 33996 ft 471 kts 335°
2026-05-03 23:38 -23.07654 -65.68129 33996 ft 471 kts 335°
2026-05-03 23:39 -23.01559 -65.70823 33996 ft 471 kts 335°
2026-05-03 23:39 -22.95508 -65.73494 33996 ft 471 kts 335°
2026-05-03 23:40 -22.89436 -65.76173 33996 ft 471 kts 335°
2026-05-03 23:40 -22.83352 -65.78854 33996 ft 471 kts 335°
2026-05-03 23:41 -22.77269 -65.81532 33996 ft 471 kts 335°
2026-05-03 23:41 -22.71222 -65.84192 33996 ft 471 kts 335°
2026-05-03 23:42 -22.65124 -65.86871 33996 ft 471 kts 335°
2026-05-03 23:42 -22.59072 -65.89528 33996 ft 471 kts 335°
2026-05-03 23:43 -22.52994 -65.92194 33996 ft 471 kts 335°
2026-05-03 23:43 -22.46895 -65.94867 33996 ft 471 kts 335°
2026-05-03 23:44 -22.40853 -65.97512 33996 ft 471 kts 335°
2026-05-03 23:44 -22.34738 -66.00187 33996 ft 471 kts 335°
2026-05-03 23:45 -22.28689 -66.02831 33996 ft 471 kts 335°
2026-05-03 23:45 -22.22609 -66.05486 33996 ft 471 kts 335°
2026-05-03 23:46 -22.16507 -66.08148 33996 ft 471 kts 335°
2026-05-03 23:46 -22.10429 -66.10796 33996 ft 471 kts 335°
2026-05-03 23:47 -22.04346 -66.13443 33996 ft 471 kts 335°
2026-05-03 23:47 -21.98260 -66.16089 33996 ft 471 kts 335°
2026-05-03 23:48 -21.92167 -66.18737 33996 ft 471 kts 335°
2026-05-03 23:48 -21.86109 -66.21369 33996 ft 471 kts 335°
2026-05-03 23:49 -21.80036 -66.24022 33996 ft 471 kts 335°
2026-05-03 23:49 -21.74066 -66.26662 33996 ft 471 kts 335°
2026-05-03 23:50 -21.69016 -66.28904 33996 ft 471 kts 335°
2026-05-03 23:50 -21.61969 -66.32038 33996 ft 471 kts 335°
2026-05-03 23:51 -21.55901 -66.34735 33996 ft 471 kts 335°
2026-05-03 23:51 -21.50857 -66.36975 33996 ft 471 kts 335°
2026-05-03 23:52 -21.44804 -66.39661 33996 ft 471 kts 335°
2026-05-03 23:52 -21.38740 -66.42349 33996 ft 471 kts 335°
2026-05-03 23:53 -21.32675 -66.45035 33996 ft 471 kts 335°
2026-05-03 23:53 -21.26619 -66.47714 33996 ft 471 kts 335°
2026-05-03 23:54 -21.20550 -66.50397 33996 ft 471 kts 335°
2026-05-03 23:54 -21.14515 -66.53062 33996 ft 471 kts 335°
2026-05-03 23:55 -21.08424 -66.55749 33996 ft 471 kts 335°
2026-05-03 23:55 -21.02439 -66.58385 33787 ft 455 kts 335°
2026-05-03 23:56 -20.99586 -66.59634 33328 ft 431 kts 335°
2026-05-03 23:56 -20.96886 -66.60814 32834 ft 412 kts 334°
2026-05-03 23:56 -20.94269 -66.61959 32328 ft 397 kts 334°
2026-05-03 23:56 -20.91741 -66.63067 31822 ft 384 kts 334°
2026-05-03 23:57 -20.89311 -66.64135 31319 ft 373 kts 334°
2026-05-03 23:57 -20.86927 -66.65186 30813 ft 364 kts 334°
2026-05-03 23:57 -20.84634 -66.66199 30315 ft 356 kts 334°
2026-05-03 23:57 -20.82361 -66.67204 29810 ft 349 kts 334°
2026-05-03 23:58 -20.80130 -66.68193 29306 ft 343 kts 334°
2026-05-03 23:58 -20.77944 -66.69170 28803 ft 337 kts 333°
2026-05-03 23:58 -20.75792 -66.70137 28300 ft 332 kts 333°
2026-05-03 23:58 -20.74777 -66.70594 28060 ft 330 kts 333°
2026-05-03 23:59 -20.72965 -66.71414 27628 ft 326 kts 333°
2026-05-03 23:59 -20.70894 -66.72352 27128 ft 322 kts 333°
2026-05-03 23:59 -20.68825 -66.73291 26522 ft 322 kts 333°
2026-05-04 00:00 -20.66780 -66.74222 25809 ft 324 kts 333°
2026-05-04 00:00 -20.64675 -66.75182 25055 ft 326 kts 333°
2026-05-04 00:00 -20.62610 -66.76122 24315 ft 327 kts 333°
2026-05-04 00:00 -20.60550 -66.77178 23557 ft 323 kts 324°
2026-05-04 00:01 -20.58854 -66.78678 22818 ft 318 kts 311°
2026-05-04 00:01 -20.57373 -66.80455 22066 ft 316 kts 307°
2026-05-04 00:01 -20.56015 -66.82287 21321 ft 315 kts 305°
2026-05-04 00:01 -20.54711 -66.84137 20572 ft 312 kts 304°
2026-05-04 00:02 -20.53432 -66.85988 19818 ft 307 kts 303°
2026-05-04 00:02 -20.52172 -66.87825 19056 ft 301 kts 303°
2026-05-04 00:02 -20.50956 -66.89593 18309 ft 295 kts 303°
2026-05-04 00:02 -20.49741 -66.91350 17553 ft 290 kts 303°
2026-05-04 00:03 -20.48547 -66.93060 16803 ft 286 kts 303°
2026-05-04 00:03 -20.47346 -66.94770 16066 ft 290 kts 303°
2026-05-04 00:03 -20.46127 -66.96501 15321 ft 295 kts 303°
2026-05-04 00:03 -20.44806 -66.98150 14980 ft 287 kts 315°
2026-05-04 00:04 -20.43600 -66.99035 14797 ft 282 kts 332°
2026-05-04 00:04 -20.41831 -66.99657 14774 ft 260 kts 353°
2026-05-04 00:04 -20.40103 -66.99463 14804 ft 238 kts 22°
2026-05-04 00:04 -20.38829 -66.98466 14646 ft 227 kts 50°
2026-05-04 00:05 -20.38041 -66.97056 14580 ft 209 kts 71°
2026-05-04 00:05 -20.37855 -66.95516 14121 ft 213 kts 100°
2026-05-04 00:05 -20.38471 -66.94070 13736 ft 231 kts 127°
2026-05-04 00:05 -20.39572 -66.92722 13211 ft 246 kts 132°
2026-05-04 00:06 -20.40680 -66.91429 13022 ft 226 kts 132°
2026-05-04 00:06 -20.41597 -66.90138 12712 ft 211 kts 125°
2026-05-04 00:06 -20.42371 -66.88846 12459 ft 198 kts 121°
2026-05-04 00:06 -20.43059 -66.87628 12193 ft 183 kts 121°
2026-05-04 00:07 -20.43680 -66.86530 12059 ft 157 kts 121°
2026-05-04 00:07 -20.44160 -66.85681 12059 ft 109 kts 121°
2026-05-04 00:07 -20.44454 -66.85157 12059 ft 48 kts 121°
2026-05-04 00:07 -20.44567 -66.84947 12059 ft 29 kts 112°
2026-05-04 00:08 -20.44583 -66.84777 12059 ft 14 kts 79°
2026-05-04 00:08 -20.44578 -66.84752 12059 ft 0 kts 77°
2026-05-04 00:08 -20.44577 -66.84747 12059 ft 5 kts 77°
2026-05-04 00:08 -20.44564 -66.84659 12059 ft 16 kts 99°
2026-05-04 00:09 -20.44616 -66.84547 12059 ft 16 kts 116°
2026-05-04 00:09 -20.44663 -66.84450 12059 ft 10 kts 104°
2026-05-04 00:09 -20.44644 -66.84399 12059 ft 7 kts 32°
2026-05-04 00:09 -20.44613 -66.84367 12059 ft 5 kts 48°
2026-05-04 00:10 -20.44585 -66.84348 12059 ft 6 kts 31°
2026-05-04 00:10 -20.44560 -66.84326 12059 ft 3 kts 75°
2026-05-04 00:10 -20.44569 -66.84316 12059 ft 2 kts 179°
2026-05-04 00:10 -20.44576 -66.84323 12059 ft 1 kts 248°
2026-05-04 00:11 -20.44577 -66.84325 12059 ft 0 kts 257°